Location: Ariel
(45.9570°N, 122.5700°W)
Time: 08:27:15
(UTC-07:00)

Tiros 1 - Pass Details

Date: 27 July 2019
Orbit: 630 x 664 km, 48.4° (Epoch: 21 August)

Event Time Altitude Azimuth Distance (km) Brightness Sun altitude
Rises 12:54:30 0° 263° (W) 2,983 10.5 62.8°
Reaches altitude 10° 12:56:51 10° 266° (W) 2,075 9.9 62.9°
Maximum altitude 13:01:39 71° 350° (N) 704 8.2 63.0°
Drops below altitude 10° 13:06:27 10° 75° (ENE) 2,084 9.9 63.1°
Sets 13:08:49 0° 78° (ENE) 2,997 10.5 63.1°
